CYSC

Sherbrooke Airport

ICAO Code CYSC
IATA Code YSC
Name Sherbrooke Airport
Location Sherbrooke, Quebec, CA
Elevation 792 Feet / 241.4 Meters
Latitude 45.43861111
Longitude -71.69138889
METAR CYSC 020000Z AUTO 15003KT 9SM SCT096 SCT240 17/13 A2986 RMK SLP116 DENSITY ALT 1300FT
Extra information Display Charts and CFS
Display NOTAMS
Runway Length Width Surface Elevation
13 5901 ft 150 ft ASP 754 ft
31 5901 ft 150 ft ASP 792 ft